Florala, AL

7:14 PM CDT on March 23, 2017 (GMT -0500)
Florala

Weather History for K0J4 - April, 2014

Change the Weather History Date:

Friday, April 25, 2014

  Actual Average (KCEW) Record (KCEW)
Temperature  
Mean Temperature 75 °F -  
Max Temperature 86 °F 79 °F 91 °F (1999)
Min Temperature 64 °F 54 °F 37 °F (2005)
Cooling Degree Days 10    
Growing Degree Days 25 (Base 50)    
Moisture  
Dew Point 64 °F    
Average Humidity 79    
Maximum Humidity 100    
Minimum Humidity 40    
Precipitation  
Precipitation 0.00 in - - ()
Sea Level Pressure  
Sea Level Pressure 29.96 in    
Wind  
Wind Speed 5 mph (SW)    
Max Wind Speed 8 mph    
Max Gust Speed -    
Visibility 7 miles    
Events      
Averages and records for this station are not official NWS values.
T = Trace of Precipitation, MM = Missing Value Source: NWS Daily Summary

Daily Weather History Graph

Daily Weather History Graph

Search for Another Location

Airport or City:

Trip Planner

Search our weather history database for the weather conditions in past years. The results will help you decide how hot, cold, wet, or windy it might be!

Date:

Astronomy

Apr. 25, 2014 Rise Set
Actual Time 6:06 AM CDT 7:20 PM CDT
Civil Twilight 5:41 AM CDT 7:45 PM CDT
Nautical Twilight 5:11 AM CDT 8:15 PM CDT
Astronomical Twilight 4:40 AM CDT 8:47 PM CDT
Moon 3:38 AM CDT (4/25) 3:55 PM CDT (4/25)
Length of Visible Light 14h 04m
Length of Day
13h 13m
Waning Crescent, 15% of the Moon is Illuminated
Apr 25
Waning Crescent
Apr 29
New
May 6
First Quarter
May 14
Full
May 21
Last Quarter

Hourly Weather History & Observations

Time (CDT) Temp. Heat Index Dew Point Humidity Pressure Visibility Wind Dir Wind Speed Gust Speed Precip Events Conditions
12:34 AM 64.4 °F - 62.6 °F 94% 29.95 in 4.0 mi SW 6.9 mph - N/A   Mostly Cloudy
12:44 AM 64.4 °F - 64.4 °F 100% 29.95 in 2.5 mi SW 6.9 mph - N/A   Mostly Cloudy
12:58 AM 64.9 °F - 63.0 °F 93% 29.94 in 2.0 mi SW 6.9 mph - N/A   Overcast
1:21 AM 64.4 °F - 62.6 °F 94% 29.95 in 3.0 mi SW 5.8 mph - N/A   Mostly Cloudy
1:31 AM 64.4 °F - 62.6 °F 94% 29.95 in 4.0 mi SW 5.8 mph - N/A   Mostly Cloudy
1:37 AM 64.4 °F - 62.6 °F 94% 29.96 in 4.0 mi SW 4.6 mph - N/A   Mostly Cloudy
1:53 AM 66.2 °F - 64.4 °F 94% 29.95 in 4.0 mi SW 4.6 mph - N/A   Mostly Cloudy
1:58 AM 66.0 °F - 64.0 °F 93% 29.94 in 4.0 mi SW 4.6 mph - N/A   Overcast
2:58 AM 66.9 °F - 64.9 °F 93% 29.94 in 6.0 mi Variable 3.5 mph - N/A   Overcast
3:58 AM 66.9 °F - 64.9 °F 93% 29.93 in 6.0 mi SW 4.6 mph - N/A   Overcast
4:58 AM 66.9 °F - 66.0 °F 97% 29.92 in 4.0 mi SSW 8.1 mph - N/A   Overcast
5:58 AM 68.0 °F - 66.0 °F 93% 29.94 in 6.0 mi SW 5.8 mph - N/A   Overcast
6:58 AM 68.0 °F - 66.0 °F 93% 29.96 in 4.0 mi SW 4.6 mph - N/A   Overcast
7:58 AM 69.1 °F - 66.9 °F 93% 29.98 in 7.0 mi SW 4.6 mph - N/A   Overcast
8:12 AM 69.8 °F - 66.2 °F 88% 29.99 in 8.0 mi SW 5.8 mph - N/A   Overcast
8:51 AM 71.6 °F - 66.2 °F 83% 29.99 in 10.0 mi WSW 5.8 mph - N/A   Overcast
8:58 AM 71.1 °F - 66.9 °F 87% 29.98 in 10.0 mi Variable 3.5 mph - N/A   Overcast
9:48 AM 71.6 °F - 66.2 °F 83% 30.00 in 10.0 mi Calm Calm - N/A   Overcast
9:58 AM 73.0 °F - 66.9 °F 81% 29.99 in 10.0 mi Calm Calm - N/A   Overcast
10:18 AM 73.4 °F - 66.2 °F 78% 29.99 in 10.0 mi Variable 3.5 mph - N/A   Overcast
10:47 AM 75.2 °F - 66.2 °F 73% 29.99 in 7.0 mi Variable 3.5 mph - N/A   Overcast
10:58 AM 75.9 °F - 66.9 °F 74% 29.99 in 7.0 mi SW 4.6 mph - N/A   Overcast
11:13 AM 78.8 °F - 66.2 °F 65% 29.99 in 10.0 mi Calm Calm - N/A   Overcast
11:58 AM 80.1 °F 81.9 °F 64.9 °F 60% 29.97 in 10.0 mi Variable 4.6 mph - N/A   Clear
12:58 PM 81.0 °F 82.5 °F 64.0 °F 56% 29.96 in 8.0 mi Variable 4.6 mph - N/A   Mostly Cloudy
1:58 PM 84.9 °F 85.4 °F 62.1 °F 46% 29.95 in 10.0 mi Variable 3.5 mph - N/A   Partly Cloudy
2:58 PM 84.9 °F 84.8 °F 60.1 °F 43% 29.93 in 10.0 mi Variable 3.5 mph - N/A   Partly Cloudy
3:58 PM 86.0 °F 85.4 °F 59.0 °F 40% 29.92 in 10.0 mi Variable 3.5 mph - N/A   Partly Cloudy
4:58 PM 86.0 °F 85.4 °F 59.0 °F 40% 29.91 in 10.0 mi Variable 5.8 mph - N/A   Clear
5:58 PM 84.0 °F 83.5 °F 57.9 °F 41% 29.91 in 10.0 mi WNW 3.5 mph - N/A   Clear
6:58 PM 79.0 °F - 60.1 °F 52% 29.91 in 10.0 mi Calm Calm - N/A   Clear
7:58 PM 71.1 °F - 64.0 °F 78% 29.93 in 10.0 mi Calm Calm - N/A   Clear
8:58 PM 72.0 °F - 66.0 °F 81% 29.96 in 10.0 mi SW 3.5 mph - N/A   Clear
9:58 PM 71.1 °F - 66.0 °F 84% 29.97 in 10.0 mi WSW 3.5 mph - N/A   Clear
10:58 PM 69.1 °F - 66.0 °F 90% 29.98 in 9.0 mi SW 3.5 mph - N/A   Clear
11:58 PM 66.9 °F - 64.9 °F 93% 29.98 in 6.0 mi Calm Calm - N/A   Clear